When you browse on this site, cookies collect data to enhance your experience and personalize the content and advertising you see.
Visit our Privacy Policy to learn more. By continuing to use the site, you agree to this use of cookies and data.
  • In Hungary
  • List of Countries
  • For 7 days
  • Water Temperature
  • Weather Map
  • News
  • Weather Widgets
  • user-avatar
    Login

    Hourly Weather Horokhivs'ke

    Today, 9 December, Monday

    Time Temperature Precipitation Wind Pressure Humidity
    00:00 +3°C° 0 mm 1 mps 758 mmHg 91%
    01:00 +3°C° 0 mm 1 mps 758 mmHg 91%
    02:00 +2°C° 0 mm 0 mps 757 mmHg 92%
    03:00 +2°C° 0 mm 0 mps 757 mmHg 92%
    04:00 +3°C° 0 mm 1 mps 757 mmHg 92%
    05:00 +3°C° 0 mm 1 mps 757 mmHg 92%
    06:00 +3°C° 0 mm 1 mps 757 mmHg 92%
    07:00 +2°C° 0 mm 2 mps 757 mmHg 92%
    08:00 +2°C° 0 mm 2 mps 757 mmHg 92%
    09:00 +4°C° 0 mm 2 mps 757 mmHg 86%
    10:00 +4°C° 0 mm 3 mps 757 mmHg 81%
    11:00 +7°C° 0 mm 3 mps 757 mmHg 76%
    12:00 +7°C° 0 mm 3 mps 757 mmHg 73%
    13:00 +8°C° 0 mm 3 mps 756 mmHg 71%
    14:00 +9°C° 0 mm 3 mps 756 mmHg 69%
    15:00 +8°C° 0 mm 3 mps 756 mmHg 74%
    16:00 +7°C° 0 mm 3 mps 756 mmHg 80%
    17:00 +5°C° 0 mm 3 mps 756 mmHg 86%
    18:00 +5°C° 0 mm 3 mps 756 mmHg 87%
    19:00 +4°C° 0 mm 3 mps 757 mmHg 89%
    20:00 +4°C° 0 mm 3 mps 757 mmHg 90%
    21:00 +4°C° 0 mm 3 mps 757 mmHg 90%
    22:00 +4°C° 0 mm 3 mps 757 mmHg 90%
    23:00 +4°C° 0 mm 3 mps 757 mmHg 91%

    Tomorrow, 10 December, Tuesday

    Time Temperature Precipitation Wind Pressure Humidity
    00:00 +3°C° 0 mm 3 mps 757 mmHg 91%
    01:00 +3°C° 0 mm 3 mps 757 mmHg 91%
    02:00 +3°C° 0 mm 3 mps 757 mmHg 92%
    03:00 +3°C° 0 mm 3 mps 757 mmHg 91%
    04:00 +3°C° 0 mm 3 mps 757 mmHg 91%
    05:00 +3°C° 0 mm 3 mps 757 mmHg 91%
    06:00 +3°C° 0 mm 3 mps 757 mmHg 91%
    07:00 +2°C° 0 mm 3 mps 757 mmHg 90%
    08:00 +2°C° 0 mm 3 mps 757 mmHg 90%
    09:00 +4°C° 0 mm 3 mps 757 mmHg 85%
    10:00 +5°C° 0 mm 3 mps 757 mmHg 80%
    11:00 +7°C° 0 mm 3 mps 757 mmHg 75%
    12:00 +8°C° 0 mm 2 mps 757 mmHg 74%
    13:00 +8°C° 0 mm 2 mps 757 mmHg 73%
    14:00 +8°C° 0 mm 2 mps 757 mmHg 72%
    15:00 +8°C° 0 mm 2 mps 757 mmHg 76%
    16:00 +7°C° 0 mm 2 mps 757 mmHg 81%
    17:00 +6°C° 0 mm 2 mps 757 mmHg 86%
    18:00 +6°C° 0 mm 2 mps 757 mmHg 88%
    19:00 +6°C° 0 mm 2 mps 758 mmHg 90%
    20:00 +5°C° 0 mm 2 mps 758 mmHg 91%
    21:00 +5°C° 0 mm 2 mps 758 mmHg 92%
    22:00 +5°C° 0 mm 2 mps 758 mmHg 92%
    23:00 +6°C° 0 mm 1 mps 758 mmHg 93%

    Day after tomorrow, 11 December, Wednesday

    Time Temperature Precipitation Wind Pressure Humidity
    00:00 +6°C° 0 mm 1 mps 758 mmHg 93%
    01:00 +5°C° 0 mm 1 mps 758 mmHg 93%
    02:00 +5°C° 0 mm 1 mps 758 mmHg 93%
    03:00 +5°C° 0 mm 1 mps 758 mmHg 93%
    04:00 +5°C° 0 mm 1 mps 758 mmHg 92%
    05:00 +4°C° 0 mm 2 mps 758 mmHg 92%
    06:00 +4°C° 0 mm 2 mps 758 mmHg 92%
    07:00 +4°C° 0 mm 2 mps 758 mmHg 92%
    08:00 +4°C° 0 mm 2 mps 758 mmHg 92%
    09:00 +5°C° 0 mm 2 mps 758 mmHg 87%
    10:00 +6°C° 0 mm 2 mps 759 mmHg 81%
    11:00 +7°C° 0 mm 3 mps 759 mmHg 76%
    12:00 +7°C° 0 mm 3 mps 758 mmHg 74%
    13:00 +8°C° 0 mm 3 mps 758 mmHg 73%
    14:00 +8°C° 0 mm 3 mps 758 mmHg 71%
    15:00 +7°C° 0 mm 3 mps 758 mmHg 76%
    16:00 +5°C° 0 mm 3 mps 758 mmHg 81%
    17:00 +4°C° 0 mm 3 mps 758 mmHg 86%
    18:00 +4°C° 0 mm 3 mps 758 mmHg 88%
    19:00 +3°C° 0 mm 3 mps 758 mmHg 89%
    20:00 +3°C° 0 mm 3 mps 759 mmHg 91%
    21:00 +3°C° 0 mm 3 mps 758 mmHg 91%
    22:00 +3°C° 0 mm 3 mps 758 mmHg 91%
    23:00 +2°C° 0 mm 3 mps 758 mmHg 91%

    12 December, Thursday

    Time Temperature Precipitation Wind Pressure Humidity
    00:00 +1°C° 0 mm 4 mps 758 mmHg 91%
    01:00 +1°C° 0 mm 4 mps 758 mmHg 91%
    02:00 +1°C° 0 mm 4 mps 758 mmHg 91%
    03:00 +1°C° 0 mm 4 mps 757 mmHg 91%
    04:00 0°C° 0 mm 4 mps 757 mmHg 92%
    05:00 0°C° 0 mm 4 mps 757 mmHg 92%
    06:00 0°C° 0 mm 4 mps 757 mmHg 91%
    07:00 0°C° 0 mm 5 mps 757 mmHg 90%
    08:00 0°C° 0 mm 5 mps 757 mmHg 89%
    09:00 +2°C° 0 mm 5 mps 757 mmHg 82%
    10:00 +3°C° 0 mm 6 mps 757 mmHg 76%
    11:00 +4°C° 0 mm 6 mps 757 mmHg 69%
    12:00 +4°C° 0 mm 6 mps 756 mmHg 66%
    13:00 +5°C° 0 mm 6 mps 756 mmHg 64%
    14:00 +5°C° 0 mm 6 mps 756 mmHg 62%
    15:00 +5°C° 0 mm 5 mps 756 mmHg 65%
    16:00 +3°C° 0 mm 5 mps 756 mmHg 68%
    17:00 +3°C° 0 mm 4 mps 755 mmHg 71%
    18:00 +3°C° 0 mm 4 mps 755 mmHg 72%
    19:00 +2°C° 0 mm 5 mps 755 mmHg 74%
    20:00 +1°C° 0 mm 5 mps 755 mmHg 76%
    21:00 +1°C° 0 mm 5 mps 755 mmHg 78%
    22:00 0°C° 0 mm 5 mps 755 mmHg 81%
    23:00 0°C° 0 mm 5 mps 755 mmHg 84%

    13 December, Friday

    Time Temperature Precipitation Wind Pressure Humidity
    00:00 0°C° 0 mm 5 mps 755 mmHg 86%
    01:00 0°C° 0 mm 4 mps 754 mmHg 87%
    02:00 0°C° 0 mm 4 mps 754 mmHg 89%
    03:00 -1°C° 0 mm 4 mps 754 mmHg 90%
    04:00 -1°C° 0 mm 4 mps 754 mmHg 91%
    05:00 -1°C° 0 mm 4 mps 753 mmHg 92%
    06:00 -1°C° 0 mm 4 mps 753 mmHg 93%
    07:00 -1°C° 0 mm 4 mps 753 mmHg 93%
    08:00 -1°C° 0 mm 4 mps 753 mmHg 93%
    09:00 0°C° 0 mm 4 mps 753 mmHg 89%
    10:00 +1°C° 0 mm 4 mps 753 mmHg 84%
    11:00 +2°C° 0 mm 5 mps 753 mmHg 80%
    12:00 +3°C° 0 mm 5 mps 753 mmHg 78%
    13:00 +3°C° 0 mm 5 mps 752 mmHg 75%
    14:00 +5°C° 0 mm 5 mps 752 mmHg 73%
    15:00 +4°C° 0 mm 4 mps 752 mmHg 77%
    16:00 +3°C° 0 mm 4 mps 752 mmHg 81%
    17:00 +3°C° 0 mm 4 mps 752 mmHg 85%
    18:00 +1°C° 0 mm 4 mps 752 mmHg 87%
    19:00 +1°C° 0 mm 5 mps 752 mmHg 89%
    20:00 0°C° 0 mm 5 mps 752 mmHg 91%
    21:00 0°C° 0 mm 5 mps 752 mmHg 92%
    22:00 0°C° 0 mm 4 mps 752 mmHg 92%
    23:00 0°C° 0 mm 4 mps 752 mmHg 93%

    14 December, Saturday

    Time Temperature Precipitation Wind Pressure Humidity
    00:00 0°C° 0 mm 4 mps 751 mmHg 93%
    01:00 0°C° 0 mm 4 mps 751 mmHg 93%
    02:00 0°C° 0 mm 5 mps 751 mmHg 93%
    03:00 0°C° 0 mm 5 mps 751 mmHg 93%
    04:00 0°C° 0 mm 5 mps 751 mmHg 93%
    05:00 0°C° 0 mm 5 mps 750 mmHg 94%
    06:00 0°C° 0 mm 5 mps 750 mmHg 93%
    07:00 +1°C° 0 mm 5 mps 751 mmHg 93%
    08:00 +1°C° 0 mm 5 mps 751 mmHg 93%
    09:00 +2°C° 0 mm 6 mps 751 mmHg 89%
    10:00 +3°C° 0 mm 6 mps 751 mmHg 85%
    11:00 +4°C° 0 mm 6 mps 751 mmHg 80%
    12:00 +4°C° 0 mm 6 mps 750 mmHg 79%
    13:00 +5°C° 0 mm 6 mps 750 mmHg 77%
    14:00 +7°C° 0 mm 6 mps 750 mmHg 75%
    15:00 +5°C° 0 mm 6 mps 750 mmHg 78%
    16:00 +5°C° 0 mm 5 mps 750 mmHg 82%
    17:00 +3°C° 0 mm 5 mps 750 mmHg 85%
    18:00 +3°C° 0 mm 5 mps 750 mmHg 88%
    19:00 +2°C° 0 mm 5 mps 750 mmHg 90%
    20:00 +2°C° 0 mm 5 mps 750 mmHg 93%
    21:00 +2°C° 0 mm 5 mps 750 mmHg 93%
    22:00 +3°C° 0 mm 4 mps 751 mmHg 93%
    23:00 +3°C° 0 mm 4 mps 751 mmHg 93%
    Show more